TimeCET,TemperatureF,Dew PointF,Humidity,Sea Level PressureIn,VisibilityMPH,Wind Direction,Wind SpeedMPH,Gust SpeedMPH,PrecipitationIn,Events,Conditions,WindDirDegrees,DateUTC
12:25 AM,24.8,19.4,80,29.80,6.2,NNW,5.8,-,N/A,,Mostly Cloudy,330,2013-01-15 23:25:00
12:55 AM,23.0,17.6,80,29.80,6.2,NNW,4.6,-,N/A,,Unknown,330,2013-01-15 23:55:00
1:25 AM,23.0,17.6,80,29.80,6.2,NNW,5.8,-,N/A,,Unknown,340,2013-01-16 00:25:00
1:55 AM,19.4,15.8,86,29.80,6.2,North,5.8,-,N/A,,Partly Cloudy,360,2013-01-16 00:55:00
2:25 AM,17.6,12.2,79,29.83,6.2,North,3.5,-,N/A,,Partly Cloudy,350,2013-01-16 01:25:00
2:55 AM,15.8,10.4,79,29.83,6.2,NNW,3.5,-,N/A,,Partly Cloudy,330,2013-01-16 01:55:00
3:01 AM,14.0,10.4,86,29.83,3.7,NNW,2.3,-,N/A,,Partly Cloudy,330,2013-01-16 02:01:00
3:06 AM,14.0,12.2,93,29.83,5.0,NNW,2.3,-,N/A,,Mist,330,2013-01-16 02:06:00
3:15 AM,17.6,14.0,86,29.83,4.3,WNW,3.5,-,N/A,,Mist,300,2013-01-16 02:15:00
3:25 AM,15.8,12.2,86,29.83,5.0,NNW,5.8,-,N/A,,Partly Cloudy,330,2013-01-16 02:25:00
3:27 AM,17.6,14.0,86,29.83,4.3,NNW,5.8,-,N/A,,Mist,340,2013-01-16 02:27:00
3:41 AM,19.4,15.8,86,29.83,5.0,NNW,4.6,-,N/A,,Mist,340,2013-01-16 02:41:00
3:47 AM,19.4,15.8,86,29.83,4.3,NNW,4.6,-,N/A,,Mist,340,2013-01-16 02:47:00
3:55 AM,17.6,14.0,86,29.83,3.7,North,4.6,-,N/A,,Mist,350,2013-01-16 02:55:00
3:59 AM,17.6,14.0,86,29.83,-9999.0,North,3.5,-,N/A,,Mist,350,2013-01-16 02:59:00
4:05 AM,17.6,14.0,86,29.83,-9999.0,North,3.5,-,N/A,,Partly Cloudy,350,2013-01-16 03:05:00
4:09 AM,17.6,12.2,79,29.83,3.1,NNW,3.5,-,N/A,,Partly Cloudy,330,2013-01-16 03:09:00
4:18 AM,12.2,8.6,85,29.83,5.0,NW,4.6,-,N/A,,Mist,320,2013-01-16 03:18:00
4:25 AM,12.2,8.6,85,29.83,5.0,NW,4.6,-,N/A,,Mist,310,2013-01-16 03:25:00
4:29 AM,10.4,8.6,92,29.83,4.3,NW,4.6,-,N/A,,Mist,320,2013-01-16 03:29:00
4:33 AM,8.6,6.8,92,29.83,5.0,NNW,4.6,-,N/A,,Mist,330,2013-01-16 03:33:00
4:37 AM,10.4,6.8,85,29.80,4.3,NNW,3.5,-,N/A,,Mist,330,2013-01-16 03:37:00
4:55 AM,12.2,10.4,92,29.80,4.3,NW,2.3,-,N/A,,Mist,320,2013-01-16 03:55:00
4:59 AM,12.2,10.4,92,29.80,5.0,NW,2.3,-,N/A,,Mist,310,2013-01-16 03:59:00
5:04 AM,10.4,8.6,92,29.80,4.3,NW,2.3,-,N/A,,Mist,310,2013-01-16 04:04:00
5:10 AM,10.4,8.6,92,29.80,5.0,NW,2.3,-,N/A,,Mist,310,2013-01-16 04:10:00
5:14 AM,10.4,8.6,92,29.80,4.3,NW,3.5,-,N/A,,Mist,310,2013-01-16 04:14:00
5:15 AM,10.4,8.6,92,29.80,5.0,NW,3.5,-,N/A,,Mist,310,2013-01-16 04:15:00
5:25 AM,8.6,6.8,92,29.80,5.0,NW,4.6,-,N/A,,Mist,320,2013-01-16 04:25:00
5:26 AM,10.4,8.6,92,29.80,3.7,NW,4.6,-,N/A,,Mist,320,2013-01-16 04:26:00
5:33 AM,10.4,8.6,92,29.80,5.0,NW,4.6,-,N/A,,Mist,310,2013-01-16 04:33:00
5:37 AM,10.4,10.4,100,29.80,4.3,NW,4.6,-,N/A,,Mist,310,2013-01-16 04:37:00
5:55 AM,8.6,6.8,92,29.80,4.3,NNW,4.6,-,N/A,,Mist,330,2013-01-16 04:55:00
5:56 AM,8.6,6.8,92,29.80,5.6,NNW,4.6,-,N/A,,Mist,340,2013-01-16 04:56:00
6:01 AM,10.4,10.4,100,29.80,4.3,NNW,3.5,-,N/A,,Mist,330,2013-01-16 05:01:00
6:06 AM,10.4,8.6,92,29.80,5.0,NW,4.6,-,N/A,,Mist,320,2013-01-16 05:06:00
6:11 AM,10.4,10.4,100,29.80,4.3,NW,4.6,-,N/A,,Mist,320,2013-01-16 05:11:00
6:15 AM,12.2,10.4,92,29.80,5.0,NNW,3.5,-,N/A,,Mist,330,2013-01-16 05:15:00
6:25 AM,10.4,10.4,100,29.80,4.3,NNW,2.3,-,N/A,,Mist,340,2013-01-16 05:25:00
6:55 AM,6.8,5.0,92,29.80,4.3,NW,4.6,-,N/A,,Partly Cloudy,310,2013-01-16 05:55:00
7:07 AM,6.8,5.0,92,29.80,5.0,NNW,4.6,-,N/A,,Mist,330,2013-01-16 06:07:00
7:13 AM,6.8,5.0,92,29.80,4.3,NNW,4.6,-,N/A,,Mist,330,2013-01-16 06:13:00
7:25 AM,8.6,6.8,92,29.83,4.3,NNW,5.8,-,N/A,,Partly Cloudy,330,2013-01-16 06:25:00
7:29 AM,10.4,8.6,92,29.83,5.0,NNW,4.6,-,N/A,,Mist,330,2013-01-16 06:29:00
7:33 AM,8.6,8.6,100,29.83,4.3,NW,3.5,-,N/A,,Mist,320,2013-01-16 06:33:00
7:38 AM,10.4,8.6,92,29.83,5.0,NW,2.3,-,N/A,,Mist,320,2013-01-16 06:38:00
7:41 AM,10.4,8.6,92,29.83,4.3,NNW,2.3,-,N/A,,Mist,330,2013-01-16 06:41:00
7:49 AM,10.4,8.6,92,29.83,-9999.0,North,2.3,-,N/A,,Mist,10,2013-01-16 06:49:00
7:55 AM,8.6,6.8,92,29.83,3.1,NE,2.3,-,N/A,,Mist,50,2013-01-16 06:55:00
8:00 AM,6.8,6.8,100,29.83,-9999.0,East,3.5,-,N/A,,Mist,80,2013-01-16 07:00:00
8:01 AM,10.4,8.6,92,29.83,3.1,ENE,4.6,-,N/A,,Mist,70,2013-01-16 07:01:00
8:14 AM,8.6,6.8,92,29.83,3.7,NE,2.3,-,N/A,,Mist,40,2013-01-16 07:14:00
8:25 AM,8.6,8.6,100,29.83,3.7,NE,2.3,-,N/A,,Mist,50,2013-01-16 07:25:00
8:34 AM,10.4,8.6,92,29.83,-9999.0,NNE,2.3,-,N/A,,Mist,30,2013-01-16 07:34:00
8:38 AM,12.2,12.2,100,29.83,3.7,North,2.3,-,N/A,,Mist,10,2013-01-16 07:38:00
8:44 AM,12.2,12.2,100,29.83,1.8,NNW,2.3,-,N/A,,Mist,340,2013-01-16 07:44:00
8:45 AM,8.6,8.6,100,29.83,2.5,NW,2.3,-,N/A,Snow,Light Snow,320,2013-01-16 07:45:00
8:55 AM,10.4,8.6,92,29.83,3.1,WNW,2.3,-,N/A,,Mist,300,2013-01-16 07:55:00
9:06 AM,8.6,6.8,92,29.83,3.1,WNW,3.5,-,N/A,,Partly Cloudy,300,2013-01-16 08:06:00
9:25 AM,10.4,8.6,92,29.83,3.1,WNW,3.5,-,N/A,,Partly Cloudy,300,2013-01-16 08:25:00
9:34 AM,10.4,10.4,100,29.86,0.8,NNW,2.3,-,N/A,,Mist,340,2013-01-16 08:34:00
9:39 AM,12.2,10.4,92,29.86,1.6,North,2.3,-,N/A,,Mist,350,2013-01-16 08:39:00
9:47 AM,12.2,12.2,100,29.86,-9999.0,North,2.3,-,N/A,,Mist,350,2013-01-16 08:47:00
9:51 AM,12.2,12.2,100,29.86,3.7,North,2.3,-,N/A,,Mist,10,2013-01-16 08:51:00
9:55 AM,14.0,14.0,100,29.86,3.7,NNE,2.3,-,N/A,,Mist,20,2013-01-16 08:55:00
10:00 AM,15.8,14.0,93,29.86,5.0,NNE,3.5,-,N/A,,Mist,20,2013-01-16 09:00:00
10:05 AM,15.8,15.8,100,29.86,4.3,North,3.5,-,N/A,,Mist,10,2013-01-16 09:05:00
10:09 AM,15.8,14.0,93,29.86,5.0,NNE,3.5,-,N/A,,Mist,20,2013-01-16 09:09:00
10:25 AM,17.6,17.6,100,29.86,5.6,NNE,3.5,-,N/A,,Mist,20,2013-01-16 09:25:00
10:29 AM,17.6,15.8,93,29.86,5.6,NE,3.5,-,N/A,,Mist,40,2013-01-16 09:29:00
10:55 AM,17.6,15.8,93,29.86,6.2,NNE,4.6,-,N/A,,Partly Cloudy,30,2013-01-16 09:55:00
11:06 AM,19.4,19.4,100,29.86,6.2,NE,5.8,-,N/A,,Unknown,40,2013-01-16 10:06:00
11:25 AM,21.2,19.4,93,29.86,6.2,NNE,8.1,26.5,N/A,,Unknown,30,2013-01-16 10:25:00
11:55 AM,21.2,19.4,93,29.86,5.6,NNE,6.9,27.6,N/A,,Mist,20,2013-01-16 10:55:00
12:25 PM,23.0,19.4,86,29.86,6.2,NNE,5.8,-,N/A,,Partly Cloudy,20,2013-01-16 11:25:00
12:55 PM,23.0,19.4,86,29.86,6.2,NE,6.9,-,N/A,,Unknown,40,2013-01-16 11:55:00
1:25 PM,23.0,19.4,86,29.83,5.6,NNE,5.8,-,N/A,,Mist,30,2013-01-16 12:25:00
1:35 PM,24.8,21.2,86,29.83,5.6,NNE,4.6,-,N/A,,Mist,20,2013-01-16 12:35:00
1:47 PM,24.8,21.2,86,29.86,5.6,NNE,4.6,-,N/A,,Partly Cloudy,20,2013-01-16 12:47:00
1:55 PM,24.8,21.2,86,29.86,4.3,NNE,5.8,-,N/A,,Partly Cloudy,30,2013-01-16 12:55:00
1:56 PM,24.8,21.2,86,29.86,5.6,NE,5.8,-,N/A,,Mist,40,2013-01-16 12:56:00
2:12 PM,24.8,21.2,86,29.86,5.0,NNE,6.9,-,N/A,,Mist,30,2013-01-16 13:12:00
2:21 PM,24.8,19.4,80,29.86,4.3,NNE,6.9,-,N/A,,Mist,30,2013-01-16 13:21:00
2:25 PM,24.8,21.2,86,29.86,5.0,NE,6.9,18.4,N/A,,Mist,40,2013-01-16 13:25:00
2:32 PM,24.8,19.4,80,29.86,5.0,NNE,6.9,25.3,N/A,,Mist,30,2013-01-16 13:32:00
2:37 PM,24.8,19.4,80,29.86,4.3,NNE,5.8,25.3,N/A,,Mist,30,2013-01-16 13:37:00
2:43 PM,24.8,21.2,86,29.86,5.0,NE,5.8,-,N/A,,Mist,40,2013-01-16 13:43:00
2:55 PM,23.0,19.4,86,29.86,5.0,NNE,5.8,-,N/A,,Mist,30,2013-01-16 13:55:00
3:00 PM,23.0,19.4,86,29.86,4.3,NE,5.8,-,N/A,,Mist,40,2013-01-16 14:00:00
3:25 PM,21.2,19.4,93,29.86,3.7,NE,6.9,-,N/A,,Mist,40,2013-01-16 14:25:00
3:55 PM,19.4,17.6,93,29.89,3.1,NE,4.6,-,N/A,,Mist,50,2013-01-16 14:55:00
4:02 PM,19.4,15.8,86,29.89,-9999.0,NE,4.6,-,N/A,,Mist,40,2013-01-16 15:02:00
4:15 PM,17.6,15.8,93,29.89,-9999.0,ENE,4.6,-,N/A,,Partly Cloudy,60,2013-01-16 15:15:00
4:25 PM,17.6,15.8,93,29.89,1.7,NE,4.6,-,N/A,,Mostly Cloudy,50,2013-01-16 15:25:00
4:29 PM,17.6,17.6,100,29.89,1.3,ENE,5.8,-,N/A,,Mostly Cloudy,60,2013-01-16 15:29:00
4:33 PM,17.6,17.6,100,29.89,0.9,ENE,5.8,-,N/A,,Mostly Cloudy,60,2013-01-16 15:33:00
4:37 PM,19.4,17.6,93,29.89,1.1,ENE,6.9,-,N/A,,Mostly Cloudy,60,2013-01-16 15:37:00
4:51 PM,19.4,19.4,100,29.92,0.8,ENE,6.9,-,N/A,,Overcast,70,2013-01-16 15:51:00
4:55 PM,19.4,19.4,100,29.92,0.9,ENE,5.8,-,N/A,,Overcast,70,2013-01-16 15:55:00
4:59 PM,19.4,17.6,93,29.92,1.4,East,4.6,-,N/A,,Overcast,90,2013-01-16 15:59:00
5:12 PM,19.4,17.6,93,29.92,1.2,East,4.6,-,N/A,,Overcast,100,2013-01-16 16:12:00
5:25 PM,19.4,17.6,93,29.92,1.4,ENE,2.3,-,N/A,,Overcast,60,2013-01-16 16:25:00
5:39 PM,21.2,21.2,100,29.92,1.4,NE,4.6,-,N/A,,Overcast,50,2013-01-16 16:39:00
5:55 PM,21.2,21.2,100,29.92,1.3,NE,5.8,-,N/A,,Overcast,40,2013-01-16 16:55:00
6:13 PM,21.2,21.2,100,29.92,1.5,NE,5.8,-,N/A,,Overcast,40,2013-01-16 17:13:00
6:25 PM,21.2,21.2,100,29.92,1.5,NE,5.8,-,N/A,,Overcast,50,2013-01-16 17:25:00
6:55 PM,21.2,21.2,100,29.95,1.7,NE,8.1,-,N/A,,Overcast,40,2013-01-16 17:55:00
7:21 PM,21.2,21.2,100,29.95,1.8,NE,6.9,-,N/A,,Overcast,50,2013-01-16 18:21:00
7:25 PM,21.2,21.2,100,29.95,1.9,ENE,6.9,-,N/A,,Overcast,60,2013-01-16 18:25:00
7:55 PM,21.2,21.2,100,29.95,1.7,NE,5.8,-,N/A,,Overcast,50,2013-01-16 18:55:00
8:25 PM,21.2,21.2,100,29.95,1.7,NE,4.6,-,N/A,,Overcast,40,2013-01-16 19:25:00
8:55 PM,21.2,21.2,100,29.95,1.7,NE,5.8,-,N/A,,Overcast,40,2013-01-16 19:55:00
9:25 PM,21.2,21.2,100,29.95,1.7,NE,5.8,-,N/A,,Overcast,40,2013-01-16 20:25:00
9:49 PM,21.2,21.2,100,29.95,1.6,NNE,5.8,-,N/A,,Overcast,30,2013-01-16 20:49:00
9:55 PM,21.2,21.2,100,29.95,1.6,NNE,5.8,-,N/A,,Mostly Cloudy,30,2013-01-16 20:55:00
10:07 PM,21.2,21.2,100,29.98,0.8,NNE,4.6,-,N/A,,Overcast,20,2013-01-16 21:07:00
10:25 PM,21.2,21.2,100,29.98,1.1,NNE,4.6,-,N/A,,Overcast,20,2013-01-16 21:25:00
10:37 PM,21.2,21.2,100,29.98,0.8,NNE,4.6,-,N/A,,Overcast,20,2013-01-16 21:37:00
10:55 PM,21.2,21.2,100,29.98,1.1,NNE,4.6,-,N/A,,Overcast,30,2013-01-16 21:55:00
11:08 PM,21.2,21.2,100,29.98,1.1,NE,3.5,-,N/A,,Overcast,40,2013-01-16 22:08:00
11:25 PM,21.2,21.2,100,29.98,1.3,ENE,3.5,-,N/A,,Overcast,60,2013-01-16 22:25:00
11:29 PM,21.2,21.2,100,29.98,1.2,ENE,3.5,-,N/A,Snow,Light Snow,60,2013-01-16 22:29:00
11:34 PM,21.2,21.2,100,29.98,0.9,NE,3.5,-,N/A,,Overcast,50,2013-01-16 22:34:00
11:47 PM,21.2,21.2,100,29.98,1.4,NE,2.3,-,N/A,,Mostly Cloudy,50,2013-01-16 22:47:00
11:51 PM,21.2,21.2,100,29.98,1.5,NE,3.5,-,N/A,,Mostly Cloudy,50,2013-01-16 22:51:00
11:55 PM,21.2,21.2,100,29.98,1.5,ENE,3.5,-,N/A,,Mostly Cloudy,70,2013-01-16 22:55:00